Weather History for KNMM - May, 2012

Change the Weather History Date:

Sunday, May 13, 2012

  Actual Average Record
Temperature  
Mean Temperature 74 °F -  
Max Temperature 82 °F 80 °F 91 °F (2007)
Min Temperature 66 °F 59 °F 43 °F (2013)
Cooling Degree Days 8    
Growing Degree Days 24 (Base 50)    
Moisture  
Dew Point 65 °F    
Average Humidity 85    
Maximum Humidity 100    
Minimum Humidity 54    
Precipitation  
Precipitation 0.19 in - - ()
Sea Level Pressure  
Sea Level Pressure 30.03 in    
Wind  
Wind Speed 5 mph (SW)    
Max Wind Speed 16 mph    
Max Gust Speed 18 mph    
Visibility 9 miles    
Events Rain    
Averages and records for this station are not official NWS values.
T = Trace of Precipitation, MM = Missing Value Source: NWS Daily Summary

Daily Weather History Graph

Daily Weather History Graph

Search for Another Location

Airport or City:

Trip Planner

Search our weather history database for the weather conditions in past years. The results will help you decide how hot, cold, wet, or windy it might be!

Date:

Astronomy

May. 13, 2012 Rise Set
Actual Time 5:56 AM CDT 7:44 PM CDT
Civil Twilight 5:29 AM CDT 8:11 PM CDT
Nautical Twilight 4:57 AM CDT 8:44 PM CDT
Astronomical Twilight 4:22 AM CDT 9:18 PM CDT
Moon 1:39 AM CDT (5/13) 1:26 PM CDT (5/13)
Length of Visible Light 14h 41m
Length of Day
13h 47m
Last Quarter, 42% of the Moon is Illuminated
May 13
Last Quarter
May 20
New
May 28
First Quarter
Jun 4
Full
Jun 11
Last Quarter

Hourly Weather History & Observations

Time (CDT) Temp. Heat Index Dew Point Humidity Pressure Visibility Wind Dir Wind Speed Gust Speed Precip Events Conditions
12:56 AM 68.0 °F - 66.0 °F 93% 30.07 in 9.0 mi SSE 4.6 mph - N/A   Overcast
1:56 AM 68.0 °F - 66.0 °F 93% 30.05 in 8.0 mi SSE 4.6 mph - N/A   Overcast
2:34 AM 68.0 °F - 66.2 °F 94% 30.02 in 9.0 mi SSE 6.9 mph - N/A   Overcast
2:56 AM 68.0 °F - 66.0 °F 93% 30.04 in 9.0 mi SSE 6.9 mph - N/A   Overcast
3:03 AM 68.0 °F - 66.2 °F 94% 30.02 in 10.0 mi SSE 6.9 mph - N/A   Overcast
3:12 AM 68.0 °F - 66.2 °F 94% 30.01 in 10.0 mi SSE 5.8 mph - N/A   Overcast
3:17 AM 68.0 °F - 66.2 °F 94% 30.02 in 10.0 mi SSE 4.6 mph - N/A   Overcast
3:56 AM 68.0 °F - 66.0 °F 93% 30.04 in 9.0 mi Calm Calm - N/A   Overcast
4:05 AM 68.0 °F - 66.2 °F 94% 30.01 in 9.0 mi Calm Calm - N/A   Overcast
4:13 AM 68.0 °F - 66.2 °F 94% 30.01 in 8.0 mi Calm Calm - N/A   Overcast
4:43 AM 68.0 °F - 66.2 °F 94% 30.01 in 9.0 mi Calm Calm - N/A   Overcast
4:56 AM 68.0 °F - 66.0 °F 93% 30.04 in 9.0 mi Calm Calm - N/A   Overcast
5:09 AM 66.2 °F - 66.2 °F 100% 30.01 in 9.0 mi SSE 4.6 mph - N/A   Mostly Cloudy
5:22 AM 66.2 °F - 64.4 °F 94% 30.01 in 8.0 mi SE 3.5 mph - N/A   Partly Cloudy
5:56 AM 66.9 °F - 64.9 °F 93% 30.04 in 7.0 mi Calm Calm - N/A   Clear
6:13 AM 66.2 °F - 64.4 °F 94% 30.02 in 2.5 mi Calm Calm - N/A   Clear
6:21 AM 66.2 °F - 64.4 °F 94% 30.02 in 6.0 mi Calm Calm - N/A   Clear
6:41 AM 66.2 °F - 64.4 °F 94% 30.02 in 8.0 mi Calm Calm - N/A   Mostly Cloudy
6:56 AM 66.9 °F - 64.9 °F 93% 30.06 in 8.0 mi Calm Calm - N/A   Overcast
7:06 AM 66.2 °F - 66.2 °F 100% 30.03 in 8.0 mi Calm Calm - N/A   Overcast
7:31 AM 68.0 °F - 66.2 °F 94% 30.03 in 8.0 mi South 3.5 mph - N/A   Overcast
7:40 AM 68.0 °F - 66.2 °F 94% 30.04 in 8.0 mi South 3.5 mph - N/A   Overcast
7:56 AM 69.1 °F - 66.0 °F 90% 30.06 in 8.0 mi Calm Calm - N/A   Overcast
8:43 AM 69.8 °F - 66.2 °F 88% 30.04 in 9.0 mi South 3.5 mph - N/A   Overcast
8:56 AM 70.0 °F - 66.0 °F 87% 30.06 in 10.0 mi SSW 3.5 mph - N/A   Overcast
9:17 AM 69.8 °F - 66.2 °F 88% 30.04 in 10.0 mi SSW 4.6 mph - N/A   Overcast
9:56 AM 71.1 °F - 66.9 °F 87% 30.07 in 10.0 mi SSW 5.8 mph - N/A   Overcast
10:06 AM 71.6 °F - 66.2 °F 83% 30.04 in 10.0 mi SW 5.8 mph - N/A   Overcast
10:13 AM 71.6 °F - 66.2 °F 83% 30.04 in 10.0 mi SSW 5.8 mph - N/A   Overcast
10:36 AM 69.8 °F - 66.2 °F 88% 30.04 in 1.8 mi WSW 9.2 mph - 0.03 in Rain Rain
10:56 AM 69.1 °F - 66.9 °F 93% 30.07 in 4.0 mi SW 3.5 mph - 0.19 in Rain Light Rain
11:20 AM 71.6 °F - 66.2 °F 83% 30.04 in 10.0 mi WNW 4.6 mph - 0.00 in   Overcast
11:28 AM 71.6 °F - 66.2 °F 83% 30.04 in 10.0 mi WSW 3.5 mph - 0.00 in   Overcast
11:35 AM 71.6 °F - 66.2 °F 83% 30.04 in 10.0 mi Variable 3.5 mph - 0.00 in   Overcast
11:48 AM 73.4 °F - 66.2 °F 78% 30.04 in 10.0 mi West 6.9 mph - 0.00 in   Overcast
11:56 AM 73.9 °F - 66.9 °F 79% 30.06 in 10.0 mi West 6.9 mph - 0.00 in   Overcast
12:56 PM 77.0 °F - 66.0 °F 69% 30.04 in 10.0 mi West 5.8 mph - N/A   Partly Cloudy
1:56 PM 80.1 °F 81.9 °F 64.9 °F 60% 30.02 in 10.0 mi West 11.5 mph - N/A   Mostly Cloudy
2:56 PM 78.1 °F - 64.0 °F 62% 30.01 in 10.0 mi West 11.5 mph - N/A   Mostly Cloudy
3:56 PM 81.0 °F 82.5 °F 64.0 °F 56% 29.99 in 10.0 mi West 10.4 mph 18.4 mph N/A   Scattered Clouds
4:56 PM 80.1 °F 81.7 °F 64.0 °F 58% 29.98 in 10.0 mi WNW 15.0 mph - N/A   Partly Cloudy
5:01 PM 80.6 °F 81.8 °F 62.6 °F 54% 29.96 in 10.0 mi WNW 15.0 mph - N/A   Partly Cloudy
5:56 PM 78.1 °F - 63.0 °F 60% 29.99 in 10.0 mi NW 16.1 mph - N/A   Clear
6:56 PM 75.0 °F - 63.0 °F 66% 30.00 in 10.0 mi WNW 11.5 mph - N/A   Partly Cloudy
7:56 PM 72.0 °F - 63.0 °F 73% 30.02 in 10.0 mi NW 5.8 mph - N/A   Scattered Clouds
8:56 PM 69.1 °F - 63.0 °F 81% 30.04 in 10.0 mi NNW 5.8 mph - N/A   Partly Cloudy
9:56 PM 66.9 °F - 63.0 °F 87% 30.06 in 10.0 mi NNW 5.8 mph - N/A   Clear
10:56 PM 66.0 °F - 62.1 °F 87% 30.06 in 10.0 mi NW 5.8 mph - N/A   Clear
11:23 PM 66.2 °F - 62.6 °F 88% 30.03 in 10.0 mi NNW 4.6 mph - N/A   Mostly Cloudy
11:56 PM 66.0 °F - 62.1 °F 87% 30.04 in 10.0 mi NW 4.6 mph - N/A   Mostly Cloudy